TimeCDT,TemperatureF,Dew PointF,Humidity,Sea Level PressureIn,VisibilityMPH,Wind Direction,Wind SpeedMPH,Gust SpeedMPH,PrecipitationIn,Events,Conditions,WindDirDegrees,DateUTC
12:56 AM,72.9,64.9,76,29.97,10.0,SE,8.1,-,N/A,,Clear,140,2013-10-28 05:56:00
1:56 AM,73.9,65.8,76,29.96,10.0,SSE,9.2,-,N/A,,Partly Cloudy,150,2013-10-28 06:56:00
2:56 AM,72.9,65.8,79,29.96,10.0,SSE,9.2,-,N/A,,Clear,150,2013-10-28 07:56:00
3:56 AM,72.0,65.8,81,29.95,10.0,SSE,8.1,-,N/A,,Clear,150,2013-10-28 08:56:00
4:56 AM,70.9,66.9,87,29.95,10.0,SE,9.2,-,N/A,,Clear,140,2013-10-28 09:56:00
5:56 AM,70.9,68.0,91,29.96,10.0,SE,8.1,-,N/A,,Clear,130,2013-10-28 10:56:00
6:56 AM,70.9,68.9,93,29.96,10.0,SE,8.1,-,N/A,,Clear,140,2013-10-28 11:56:00
7:56 AM,70.9,70.0,97,29.98,10.0,SE,8.1,-,N/A,,Partly Cloudy,130,2013-10-28 12:56:00
8:56 AM,72.9,70.9,93,30.01,10.0,SE,8.1,-,N/A,,Partly Cloudy,140,2013-10-28 13:56:00
9:46 AM,77.0,71.6,83,30.05,10.0,SE,13.8,-,N/A,,Mostly Cloudy,140,2013-10-28 14:46:00
9:56 AM,77.0,70.9,81,30.02,10.0,SE,12.7,-,N/A,,Overcast,140,2013-10-28 14:56:00
10:18 AM,78.8,71.6,78,30.05,10.0,SE,17.3,-,N/A,,Overcast,140,2013-10-28 15:18:00
10:56 AM,79.9,70.0,72,30.02,10.0,SSE,13.8,-,N/A,,Mostly Cloudy,150,2013-10-28 15:56:00
11:26 AM,82.4,69.8,66,30.05,10.0,SE,12.7,19.6,N/A,,Scattered Clouds,140,2013-10-28 16:26:00
11:40 AM,82.4,69.8,66,30.05,10.0,SSE,16.1,-,N/A,,Mostly Cloudy,160,2013-10-28 16:40:00
11:56 AM,82.9,68.9,62,30.01,10.0,SSE,12.7,21.9,N/A,,Mostly Cloudy,150,2013-10-28 16:56:00
12:56 PM,86.0,68.0,55,29.98,10.0,SE,16.1,-,N/A,,Mostly Cloudy,140,2013-10-28 17:56:00
1:56 PM,86.9,68.0,53,29.95,10.0,SE,13.8,20.7,N/A,,Overcast,130,2013-10-28 18:56:00
2:56 PM,86.9,66.9,51,29.92,10.0,SSE,15.0,-,N/A,,Overcast,160,2013-10-28 19:56:00
3:56 PM,88.0,68.0,51,29.91,10.0,SSE,12.7,-,N/A,,Overcast,160,2013-10-28 20:56:00
4:56 PM,88.0,66.9,49,29.90,10.0,SE,12.7,-,N/A,,Overcast,140,2013-10-28 21:56:00
5:56 PM,88.0,66.9,49,29.90,10.0,SE,11.5,-,N/A,,Overcast,140,2013-10-28 22:56:00
6:56 PM,86.9,66.9,51,29.91,10.0,SE,13.8,-,N/A,,Overcast,140,2013-10-28 23:56:00
7:56 PM,84.9,66.9,55,29.92,10.0,SE,12.7,-,N/A,,Scattered Clouds,130,2013-10-29 00:56:00
8:56 PM,82.9,66.9,58,29.94,10.0,SE,15.0,-,N/A,,Partly Cloudy,130,2013-10-29 01:56:00
9:56 PM,81.9,68.9,65,29.95,10.0,SE,18.4,-,N/A,,Clear,140,2013-10-29 02:56:00
10:56 PM,79.9,68.9,69,29.97,10.0,SE,16.1,-,N/A,,Clear,140,2013-10-29 03:56:00
11:56 PM,77.9,68.9,74,29.98,10.0,SE,15.0,-,N/A,,Scattered Clouds,140,2013-10-29 04:56:00